Weather History for Green Bay, WI

Change the Weather History Date:

Sunday, August 25, 2013

  Actual Average Record
Temperature  
Mean Temperature 78 °F 66 °F  
Max Temperature 89 °F 77 °F 96 °F (1948)
Min Temperature 67 °F 56 °F 40 °F (1958)
Degree Days  
Heating Degree Days 0 2  
Month to date heating degree days 18 27  
Since 1 June heating degree days 112 142  
Since 1 July heating degree days 40 50  
Cooling Degree Days 13 3  
Month to date cooling degree days 72 93  
Year to date cooling degree days 413 344  
Since 1 June cooling degree days 375 326  
Growing Degree Days 28 (Base 50)    
Moisture  
Dew Point 68 °F    
Average Humidity 72    
Maximum Humidity 87    
Minimum Humidity 56    
Precipitation  
Precipitation 0.00 in 0.10 in 2.75 in (1906)
Month to date precipitation 2.37 2.76  
Year to date precipitation 23.31 19.79  
Snow  
Snow 0.00 in 0.00 in 0.00 in ()
Month to date snowfall 0.0 0.0  
Since 1 June snowfall 0.0 0.0  
Since 1 July snowfall 0.0 0.0  
Snow Depth 0.00 in    
Sea Level Pressure  
Sea Level Pressure 30.08 in    
Wind  
Wind Speed 11 mph (SSW)    
Max Wind Speed 18 mph    
Max Gust Speed 28 mph    
Visibility 10 miles    
Events      
T = Trace of Precipitation, MM = Missing Value Source: NWS Daily Summary

Daily Weather History Graph

Daily Weather History Graph

Search for Another Location

Airport:

Trip Planner

Search our weather history database for the weather conditions in past years. The results will help you decide how hot, cold, wet, or windy it might be!

Date:

Astronomy

Aug. 25, 2013 Rise Set
Actual Time 6:07 AM CDT 7:40 PM CDT
Civil Twilight 5:36 AM CDT 8:11 PM CDT
Nautical Twilight 4:59 AM CDT 8:48 PM CDT
Astronomical Twilight 4:19 AM CDT 9:27 PM CDT
Moon 9:56 PM CDT (8/25) 11:23 AM CDT (8/25)
Length of Visible Light 14h 34m
Length of Day
13h 33m
Waning Gibbous, 75% of the Moon is Illuminated
Aug 25
Waning Gibbous
Aug 28
Last Quarter
Sep 5
New
Sep 12
First Quarter
Sep 19
Full

Hourly Weather History & Observations

Time (CDT) Temp. Heat Index Dew Point Humidity Pressure Visibility Wind Dir Wind Speed Gust Speed Precip Events Conditions
12:53 AM 68.0 °F - 61.0 °F 78% 30.14 in 10.0 mi South 10.4 mph - N/A   Clear
1:53 AM 68.0 °F - 61.0 °F 78% 30.13 in 10.0 mi South 9.2 mph - N/A   Clear
2:53 AM 66.9 °F - 62.1 °F 84% 30.14 in 10.0 mi South 6.9 mph - N/A   Clear
3:53 AM 66.9 °F - 63.0 °F 87% 30.14 in 10.0 mi South 6.9 mph - N/A   Clear
4:53 AM 70.0 °F - 63.0 °F 78% 30.13 in 10.0 mi SSW 8.1 mph - N/A   Clear
5:53 AM 71.1 °F - 63.0 °F 75% 30.13 in 10.0 mi South 10.4 mph - N/A   Clear
6:53 AM 72.0 °F - 64.0 °F 76% 30.14 in 10.0 mi SSW 9.2 mph - N/A   Clear
7:53 AM 72.0 °F - 64.9 °F 78% 30.14 in 10.0 mi South 9.2 mph - N/A   Clear
8:53 AM 73.9 °F - 66.9 °F 79% 30.13 in 10.0 mi SSW 11.5 mph - N/A   Clear
9:53 AM 78.1 °F - 68.0 °F 71% 30.11 in 9.0 mi SSW 12.7 mph 20.7 mph N/A   Clear
10:53 AM 81.0 °F 84.4 °F 70.0 °F 69% 30.10 in 9.0 mi SW 15.0 mph 21.9 mph N/A   Clear
11:53 AM 84.0 °F 89.0 °F 71.1 °F 65% 30.08 in 9.0 mi SW 15.0 mph 23.0 mph N/A   Clear
12:53 PM 86.0 °F 92.2 °F 72.0 °F 63% 30.06 in 9.0 mi SW 13.8 mph 28.8 mph N/A   Clear
1:53 PM 88.0 °F 94.7 °F 72.0 °F 59% 30.04 in 10.0 mi SSW 17.3 mph 26.5 mph N/A   Clear
2:53 PM 89.1 °F 96.0 °F 72.0 °F 57% 30.03 in 10.0 mi SW 13.8 mph 23.0 mph N/A   Clear
3:53 PM 89.1 °F 95.0 °F 71.1 °F 55% 30.01 in 10.0 mi SW 15.0 mph 23.0 mph N/A   Clear
4:53 PM 88.0 °F 94.7 °F 72.0 °F 59% 30.01 in 9.0 mi SSW 13.8 mph 21.9 mph N/A   Clear
5:53 PM 87.1 °F 93.6 °F 72.0 °F 61% 30.01 in 9.0 mi SSW 10.4 mph - N/A   Clear
6:53 PM 84.9 °F 90.1 °F 71.1 °F 63% 30.01 in 9.0 mi SSW 9.2 mph - N/A   Clear
7:53 PM 82.0 °F 85.9 °F 70.0 °F 67% 30.02 in 8.0 mi SSW 8.1 mph - N/A   Clear
8:53 PM 81.0 °F 84.4 °F 70.0 °F 69% 30.03 in 9.0 mi SSW 8.1 mph - N/A   Clear
9:53 PM 80.1 °F 83.2 °F 70.0 °F 71% 30.04 in 9.0 mi SW 9.2 mph - N/A   Clear
10:53 PM 80.1 °F 82.9 °F 69.1 °F 69% 30.04 in 9.0 mi SW 8.1 mph - N/A   Clear
11:53 PM 77.0 °F - 68.0 °F 74% 30.02 in 9.0 mi SSW 8.1 mph - N/A   Clear